x

8638999 - Cape Henry, Va (chyv2) Weather Station

3:18pm - Sat 28th Feb 2015 All times are EST. -5 hours from GMT.

  • Wind
    11mph, 13mph gusts
  • Air Temp 28°f
  • Sea Pressure 1040.5mb
  • 8638999 - Cape Henry, Va
  • 8638999 - Cape Henry, Va

More Historic Weather Station data

Upgrade to MSW Pro to gain access to the past 30 days of data for over 8000 Wavebouys and Weather Stations around the globe.

Join Pro

Comparision Forecast

View Surf forecast
   
Sat 02/28 3:18pm 11 13 mph 1040.5mb 28f
3:12pm 11 14 mph 1040.6mb 28f
3:06pm 11 14 mph 1040.6mb 28f
3:00pm 13 15 mph 1040.7mb 28f
2:54pm 11 15 mph 1040.8mb 28f
2:48pm 11 15 mph 1040.9mb 28f
2:42pm 11 14 mph 1041mb 28f
2:36pm 11 14 mph 1041.2mb 28f
2:30pm 11 14 mph 1041.2mb 28f
2:24pm 11 13 mph 1041.1mb 28f
2:18pm 11 14 mph 1041mb 28f
2:12pm 10 13 mph 1040.8mb 27f
2:06pm 11 14 mph 1040.9mb 27f
2:00pm 13 14 mph 1040.8mb 28f
1:54pm 13 14 mph 1040.9mb 28f
1:48pm 13 15 mph 1041mb 28f
1:42pm 14 16 mph 1041.1mb 28f
1:36pm 14 15 mph 1041.2mb 28f
1:30pm 11 14 mph 1041.3mb 28f
1:24pm 11 14 mph 1041.3mb 27f
1:18pm 11 14 mph 1041.3mb 27f
1:12pm 11 14 mph 1041.3mb 27f
1:06pm 11 13 mph 1041.5mb 27f
1:00pm 13 14 mph 1041.6mb 27f
12:54pm 13 15 mph 1041.8mb 27f
12:48pm 13 15 mph 1041.7mb 27f
12:42pm 14 16 mph 1041.9mb 27f
12:36pm 14 16 mph 1041.9mb 27f
12:30pm 14 18 mph 1041.9mb 26f
12:24pm 15 17 mph 1041.8mb 27f
12:18pm 14 17 mph 1042.1mb 26f
12:12pm 14 16 mph 1042.1mb 27f
12:06pm 13 16 mph 1042.1mb 27f
12:00pm 14 16 mph 1042.1mb 26f
11:54am 13 15 mph 1042.1mb 26f
11:48am 13 15 mph 1042.2mb 26f
11:42am 11 14 mph 1042.3mb 26f
11:36am 13 14 mph 1042.4mb 26f
11:30am 11 14 mph 1042.4mb 26f
11:24am 11 14 mph 1042.4mb 26f
11:18am 11 15 mph 1042.4mb 26f
11:12am 10 14 mph 1042.6mb 26f
11:06am 11 14 mph 1042.5mb 26f
11:00am 11 14 mph 1042.5mb 26f
10:54am 10 14 mph 1042.6mb 26f
10:48am 10 13 mph 1042.7mb 26f
10:42am 10 11 mph 1042.6mb 26f
10:36am 10 13 mph 1042.4mb 25f
10:30am 10 14 mph 1042.3mb 25f
10:24am 9 11 mph 1042.5mb 26f
10:18am 10 11 mph 1042.4mb 26f
10:12am 10 13 mph 1042.3mb 25f
10:06am 11 14 mph 1042.4mb 25f
10:00am 11 14 mph 1042.5mb 25f
9:54am 11 14 mph 1042.4mb 25f
9:48am 14 16 mph 1042.4mb 25f
9:42am 14 17 mph 1042.3mb 25f
9:36am 14 17 mph 1042.5mb 25f
9:30am 15 17 mph 1042.6mb 24f
9:24am 16 18 mph 1042.6mb 25f
9:18am 16 20 mph 1042.6mb 25f
9:12am 15 18 mph 1042.5mb 25f
9:06am 16 18 mph 1042.2mb 24f
9:00am 16 20 mph 1042.1mb 25f
8:54am 16 20 mph 1042mb 25f
8:48am 15 18 mph 1042mb 24f
8:42am 16 18 mph 1041.8mb 24f
8:36am 16 18 mph 1041.8mb 24f
8:30am 16 20 mph 1041.7mb 24f
8:24am 17 20 mph 1041.6mb 24f
8:18am 17 21 mph 1041.5mb 25f
8:12am 17 21 mph 1041.4mb 24f
8:06am 20 22 mph 1041.3mb 24f
8:00am 18 21 mph 1041.2mb 24f
7:54am 20 22 mph 1041.2mb 24f
7:48am 21 22 mph 1041mb 25f
7:42am 20 22 mph 1041mb 25f
7:36am 20 22 mph 1040.7mb 25f
7:30am 21 23 mph 1040.7mb 25f
7:24am 21 23 mph 1040.7mb 25f
7:18am 21 23 mph 1040.6mb 25f
7:12am 21 23 mph 1040.7mb 25f
7:06am 21 23 mph 1040.5mb 25f
7:00am 22 23 mph 1040.5mb 25f
6:54am 21 25 mph 1040.4mb 25f
6:48am 23 25 mph 1040.3mb 25f
6:42am 23 26 mph 1040.2mb 25f
6:36am 22 26 mph 1040.1mb 25f
6:30am 22 24 mph 1040mb 25f
6:24am 23 24 mph 1039.9mb 25f
6:18am 21 23 mph 1039.8mb 25f
6:12am 17 20 mph 1039.7mb 25f
6:06am 18 22 mph 1039.5mb 25f
6:00am 18 22 mph 1039.6mb 26f
5:54am 18 22 mph 1039.5mb 25f
5:48am 17 21 mph 1039.2mb 25f
5:42am 18 22 mph 1039.2mb 25f
5:36am 21 24 mph 1039.2mb 25f
5:30am 22 25 mph 1039.1mb 25f
5:24am 21 24 mph 1039mb 26f
5:18am 21 24 mph 1038.8mb 26f
5:12am 20 23 mph 1038.8mb 26f
5:06am 21 23 mph 1038.6mb 26f
5:00am 21 23 mph 1038.7mb 26f
4:54am 20 22 mph 1038.5mb 26f
4:48am 20 23 mph 1038.5mb 26f
4:42am 20 24 mph 1038.3mb 26f
4:36am 21 25 mph 1038.2mb 26f
4:30am 21 23 mph 1038.1mb 26f
4:24am 22 24 mph 1037.9mb 27f
4:18am 21 24 mph 1037.9mb 27f
4:12am 21 23 mph 1037.7mb 27f
4:06am 21 24 mph 1037.5mb 27f
4:00am 21 23 mph 1037.4mb 27f
3:54am 21 24 mph 1037.4mb 27f
3:48am 22 25 mph 1037.4mb 27f
3:42am 21 26 mph 1037.3mb 27f
3:36am 20 23 mph 1037.3mb 28f
3:30am 21 24 mph 1037.1mb 28f
3:24am 20 24 mph 1037mb 28f
3:18am 21 23 mph 1037mb 28f
3:12am 21 25 mph 1036.9mb 28f
3:06am 22 24 mph 1036.9mb 28f
3:00am 20 23 mph 1036.8mb 28f
2:54am 17 21 mph 1036.7mb 28f
2:48am 17 20 mph 1036.7mb 28f
2:42am 20 22 mph 1036.7mb 29f
2:36am 20 22 mph 1036.8mb 29f
2:30am 20 23 mph 1036.6mb 29f
2:24am 20 23 mph 1036.6mb 29f
2:18am 21 24 mph 1036.6mb 29f
2:12am 21 23 mph 1036.5mb 29f
2:06am 21 24 mph 1036.4mb 29f
2:00am 20 22 mph 1036.4mb 29f
1:54am 20 23 mph 1036.3mb 29f
1:48am 20 22 mph 1036.4mb 29f
1:42am 20 23 mph 1036.4mb 29f
1:36am 21 23 mph 1036.3mb 29f
1:30am 20 23 mph 1036.3mb 29f
1:24am 21 23 mph 1036.1mb 29f
1:18am 20 22 mph 1036.1mb 29f
1:12am 20 22 mph 1036.1mb 29f
1:06am 18 22 mph 1036.1mb 29f
1:00am 20 22 mph 1036mb 29f
12:54am 18 21 mph 1036mb 29f
12:48am 18 21 mph 1035.9mb 29f
12:42am 17 20 mph 1036mb 30f
12:36am 18 20 mph 1035.8mb 29f
12:30am 18 20 mph 1035.7mb 29f
12:24am 18 21 mph 1035.7mb 29f
12:18am 18 21 mph 1035.4mb 30f
12:12am 18 22 mph 1035.3mb 30f
12:06am 18 22 mph 1035.1mb 30f
12:00am 18 22 mph 1035.1mb 30f
Fri 02/27 11:54pm 17 18 mph 1035.1mb 30f
11:48pm 17 18 mph 1034.9mb 30f
11:42pm 17 18 mph 1034.8mb 30f
11:36pm 16 17 mph 1035mb 30f
11:30pm 16 18 mph 1035mb 30f
11:24pm 14 17 mph 1035.1mb 31f
11:18pm 16 20 mph 1035mb 31f
11:12pm 17 20 mph 1034.8mb 31f
11:06pm 16 20 mph 1034.8mb 31f
11:00pm 16 20 mph 1034.6mb 31f
10:54pm 17 20 mph 1034.5mb 31f
10:48pm 16 18 mph 1034.5mb 31f
10:42pm 15 17 mph 1034.5mb 31f
10:36pm 15 18 mph 1034.4mb 31f
10:30pm 15 18 mph 1034.2mb 31f
10:24pm 16 20 mph 1034.1mb 31f
10:18pm 16 18 mph 1033.9mb 31f
10:12pm 18 21 mph 1033.8mb 31f
10:06pm 14 18 mph 1033.8mb 31f
10:00pm 16 18 mph 1033.9mb 31f
9:54pm 16 17 mph 1033.9mb 31f
9:48pm 15 17 mph 1033.9mb 31f
9:42pm 16 18 mph 1033.9mb 31f
9:36pm 15 16 mph 1033.9mb 31f
9:30pm 14 16 mph 1033.7mb 31f
9:24pm 14 16 mph 1033.6mb 31f
9:18pm 14 17 mph 1033.5mb 31f
9:12pm 14 16 mph 1033.5mb 31f
9:06pm 14 16 mph 1033.3mb 31f
9:00pm 14 16 mph 1033.2mb 31f
8:54pm 14 16 mph 1033.1mb 31f
8:48pm 14 16 mph 1033mb 31f
8:42pm 14 17 mph 1033mb 31f
8:36pm 15 17 mph 1033mb 31f
8:30pm 16 18 mph 1032.9mb 31f
8:24pm 16 18 mph 1032.8mb 31f
8:18pm 15 18 mph 1032.7mb 31f
8:12pm 15 17 mph 1032.7mb 31f
8:06pm 16 20 mph 1032.6mb 31f
8:00pm 16 20 mph 1032.5mb 31f
7:54pm 17 20 mph 1032.4mb 31f
7:48pm 18 21 mph 1032.4mb 31f
7:42pm 17 20 mph 1032.4mb 31f
7:36pm 17 18 mph 1032.3mb 31f
7:30pm 17 20 mph 1032.2mb 31f
7:24pm 17 20 mph 1032.1mb 31f
7:18pm 18 20 mph 1032mb 31f
7:12pm 17 21 mph 1031.9mb 31f
7:06pm 20 22 mph 1031.8mb 31f
7:00pm 21 22 mph 1031.7mb 31f
6:54pm 20 22 mph 1031.6mb 31f
6:48pm 20 22 mph 1031.5mb 31f
6:42pm 18 22 mph 1031.4mb 31f
6:36pm 20 23 mph 1031.2mb 31f
6:30pm 17 21 mph 1031.1mb 31f
6:24pm 20 22 mph 1031mb 31f
6:18pm 20 22 mph 1031mb 31f
6:12pm 21 22 mph 1030.9mb 31f
6:06pm 16 22 mph 1030.9mb 31f
6:00pm 17 21 mph 1030.8mb 31f
5:54pm 21 23 mph 1030.6mb 31f
5:48pm 20 22 mph 1030.6mb 31f
5:42pm 15 17 mph 1030.6mb 31f
5:36pm 15 17 mph 1030.5mb 31f
5:30pm 15 17 mph 1030.4mb 31f
5:24pm 16 18 mph 1030.3mb 31f
5:18pm 17 21 mph 1030.2mb 31f
5:12pm 20 22 mph 1030.2mb 31f
5:06pm 18 21 mph 1030.2mb 31f
5:00pm 21 22 mph 1030.2mb 31f
4:54pm 20 22 mph 1030mb 31f
4:48pm 18 22 mph 1029.9mb 31f
4:42pm 20 21 mph 1029.7mb 31f
4:36pm 18 22 mph 1029.7mb 31f
4:30pm 18 20 mph 1029.7mb 31f
4:24pm 18 21 mph 1029.7mb 32f
4:18pm 18 21 mph 1029.7mb 32f
4:12pm 18 21 mph 1029.7mb 32f
4:06pm 17 20 mph 1029.6mb 32f
4:00pm 18 20 mph 1029.4mb 32f
3:54pm 18 20 mph 1029.4mb 32f
3:48pm 17 21 mph 1029.4mb 32f
3:42pm 17 20 mph 1029.5mb 32f
3:36pm 16 18 mph 1029.5mb 31f
3:30pm 16 17 mph 1029.5mb 31f
3:24pm 16 18 mph 1029.5mb 31f
3:18pm 15 18 mph 1029.4mb 31f
3:12pm 16 18 mph 1029.3mb 31f
3:06pm 16 18 mph 1029.2mb 31f
3:00pm 17 18 mph 1029.2mb 31f
2:54pm 17 18 mph 1029.1mb 31f
2:48pm 16 18 mph 1028.9mb 31f
2:42pm 16 18 mph 1028.8mb 31f
2:36pm 17 18 mph 1028.8mb 31f
2:30pm 17 20 mph 1028.9mb 31f
2:24pm 18 20 mph 1029mb 31f
2:18pm 18 20 mph 1028.8mb 31f
2:12pm 18 21 mph 1028.8mb 31f
2:06pm 20 23 mph 1028.5mb 31f
2:00pm 21 23 mph 1028.3mb 31f
1:54pm 23 25 mph 1028.2mb 32f
1:48pm 22 25 mph 1028.2mb 32f
1:42pm 21 24 mph 1028.2mb 32f
1:36pm 17 20 mph 1028.3mb 32f
1:30pm 14 15 mph 1028.1mb 32f
1:24pm 13 14 mph 1028.1mb 32f
1:18pm 14
mph
1028mb 32f
1:12pm 11 13 mph 1028mb 32f
1:06pm 9 10 mph 1028mb 33f
1:00pm 8 10 mph 1027.9mb 33f
12:54pm 9 10 mph 1028mb 32f
12:48pm 8 9 mph 1028mb 32f
12:42pm 7 8 mph 1028mb 32f
12:36pm 6 7 mph 1028mb 33f
12:30pm 5 6 mph 1027.9mb 33f
12:24pm 5 6 mph 1027.8mb 33f
12:18pm 5 6 mph 1027.9mb 33f
12:12pm 5 6 mph 1027.8mb 33f
12:06pm 6
mph
1027.8mb 33f
12:00pm 5 6 mph 1027.7mb 32f
11:54am 6
mph
1027.6mb 32f
11:48am 6
mph
1027.6mb 32f
11:42am 5 6 mph 1027.5mb 32f
11:36am 5 6 mph 1027.5mb 32f
11:30am 5 6 mph 1027.6mb 32f
11:24am 5 7 mph 1027.5mb 32f
11:18am 6
mph
1027.5mb 32f
11:12am 5 6 mph 1027.4mb 33f
11:06am 3 5 mph 1027.2mb 32f
11:00am 3 5 mph 1027.3mb 32f
10:54am 3 5 mph 1027.2mb 32f
10:48am 3 5 mph 1027.2mb 32f
10:42am 5
mph
1027.2mb 32f
10:36am 5 6 mph 1027.1mb 32f
10:30am 5 6 mph 1027mb 32f
10:24am 3 5 mph 1027.1mb 32f
10:18am 3 5 mph 1027.1mb 32f
10:12am 3
mph
1027mb 33f
10:06am 3
mph
1027mb 33f
10:00am 2 3 mph 1027mb 33f
9:54am 2 3 mph 1026.7mb 33f
9:48am 2 3 mph 1026.6mb 33f
9:42am 3 5 mph 1026.5mb 33f
9:36am 3 5 mph 1026.5mb 32f
9:30am 3 5 mph 1026.6mb 32f
9:24am 3 6 mph 1026.6mb 31f
9:18am 6
mph
1026.7mb 31f
9:12am 5
mph
1026.7mb 32f
9:06am 3 5 mph 1026.6mb 32f
9:00am 5
mph
1026.7mb 31f
8:54am 5 6 mph 1026.6mb 31f
8:48am 5 8 mph 1026.4mb 31f
8:42am 7
mph
1026.3mb 31f
8:36am 7
mph
1026.2mb 30f
8:30am 6 8 mph 1026mb 30f
8:24am 8 9 mph 1026mb 31f
8:18am 7 8 mph 1026mb 31f
8:12am 7 8 mph 1025.8mb 31f
8:06am 7 8 mph 1025.5mb 31f
8:00am 6 7 mph 1025.4mb 31f
7:54am 6 7 mph 1025.4mb 31f
7:48am 6
mph
1025.4mb 31f
7:42am 6 7 mph 1025.2mb 31f
7:36am 6 7 mph 1025.1mb 31f
7:30am 6 7 mph 1025mb 30f
7:24am 6 7 mph 1024.8mb 30f
7:18am 7 8 mph 1024.6mb 30f
7:12am 6
mph
1024.5mb 30f
7:06am 5
mph
1024.2mb 30f
7:00am 5 6 mph 1024.1mb 29f
6:54am 5 6 mph 1024mb 29f
6:48am 5 6 mph 1023.9mb 29f
6:42am 6 7 mph 1023.7mb 29f
6:36am 6 7 mph 1023.6mb 29f
6:30am 7 8 mph 1023.6mb 29f
6:24am 7 8 mph 1023.5mb 29f
6:18am 8 9 mph 1023.4mb 29f
6:12am 9
mph
1023.3mb 29f
6:06am 9 10 mph 1023.3mb 29f
6:00am 7 8 mph 1023.3mb 29f
5:54am 8 9 mph 1023.2mb 29f
5:48am 7 8 mph 1023.1mb 29f
5:42am 7 9 mph 1023mb 29f
5:36am 8 10 mph 1023mb 29f
5:30am 8 9 mph 1022.9mb 29f
5:24am 8 10 mph 1022.7mb 29f
5:18am 9 11 mph 1022.7mb 30f
5:12am 9 11 mph 1022.6mb 30f
5:06am 11
mph
1022.6mb 30f
5:00am 9 10 mph 1022.5mb 30f
4:54am 10 11 mph 1022.4mb 30f
4:48am 9 10 mph 1022.3mb 30f
4:42am 9 10 mph 1022.4mb 30f
4:36am 9 11 mph 1022.3mb 30f
4:30am 9 10 mph 1022.2mb 30f
4:24am 7 8 mph 1022mb 30f
4:18am 6 8 mph 1021.7mb 29f
4:12am 8
mph
1021.5mb 29f
4:06am 8 9 mph 1021.4mb 29f
4:00am 8 9 mph 1021.4mb 29f
3:54am 8 10 mph 1021.3mb 30f
3:48am 10 11 mph 1021.2mb 30f
3:42am 9 11 mph 1021.1mb 30f
3:36am 10 13 mph 1021.1mb 30f
3:30am 11 13 mph 1021.1mb 30f
3:24am 10 13 mph 1021mb 30f
3:18am 11 14 mph 1020.9mb 30f
3:12am 11 13 mph 1020.9mb 30f
3:06am 11 13 mph 1020.8mb 30f
3:00am 11 14 mph 1020.8mb 30f
2:54am 11 13 mph 1020.9mb 30f
2:48am 13 14 mph 1020.8mb 30f
2:42am 11 14 mph 1020.8mb 30f
2:36am 11 13 mph 1020.7mb 30f
2:30am 11 14 mph 1020.7mb 30f
2:24am 10 11 mph 1020.8mb 30f
2:18am 10 11 mph 1020.8mb 30f
2:12am 10 11 mph 1020.8mb 30f
2:06am 10
mph
1020.8mb 30f
2:00am 10 11 mph 1020.6mb 30f
1:54am 9 11 mph 1020.7mb 30f
1:48am 9 10 mph 1020.6mb 30f
1:42am 8 9 mph 1020.5mb 30f
1:36am 8 9 mph 1020.5mb 30f
1:30am 8 9 mph 1020.5mb 30f
1:24am 8 9 mph 1020.5mb 30f
1:18am 9 10 mph 1020.5mb 30f
1:12am 8 10 mph 1020.5mb 30f
1:06am 9 11 mph 1020.5mb 30f
1:00am 9 11 mph 1020.6mb 30f
12:54am 9 11 mph 1020.5mb 30f
12:48am 10 11 mph 1020.4mb 30f
12:42am 9 10 mph 1020.3mb 30f
12:36am 9 10 mph 1020.3mb 30f
12:30am 8 9 mph 1020.3mb 30f
12:24am 7 8 mph 1020.2mb 30f
12:18am 7 8 mph 1020.1mb 30f
12:12am 6 8 mph 1019.9mb 30f
12:06am 7 8 mph 1019.8mb 30f
12:00am 7 9 mph 1019.7mb 30f
Thu 02/26 11:54pm 8 9 mph 1019.6mb 30f
11:48pm 8 9 mph 1019.5mb 30f
11:42pm 8 10 mph 1019.5mb 31f
11:36pm 10 11 mph 1019.4mb 31f
11:30pm 11 13 mph 1019.3mb 31f
11:24pm 11 13 mph 1019.3mb 30f
11:18pm 10 13 mph 1019.2mb 30f
11:12pm 11 14 mph 1019.2mb 30f
11:06pm 13 14 mph 1019.1mb 30f
11:00pm 11 14 mph 1019mb 30f
10:54pm 11 14 mph 1019mb 31f
10:48pm 11 14 mph 1018.8mb 30f
10:42pm 13 14 mph 1018.7mb 30f
10:36pm 11 14 mph 1018.6mb 30f
10:30pm 14 15 mph 1018.5mb 30f
10:24pm 13 15 mph 1018.4mb 30f
10:18pm 13 15 mph 1018.4mb 31f
10:12pm 14 16 mph 1018.3mb 30f
10:06pm 14 16 mph 1018.1mb 30f
10:00pm 14 16 mph 1018mb 30f
9:54pm 14 15 mph 1017.9mb 30f
9:48pm 13 15 mph 1017.8mb 30f
9:42pm 13 15 mph 1017.8mb 30f
9:36pm 13 14 mph 1017.8mb 30f
9:30pm 10 14 mph 1017.9mb 30f
9:24pm 11 13 mph 1018mb 30f
9:18pm 11 14 mph 1017.9mb 30f
9:12pm 11 14 mph 1017.8mb 30f
9:06pm 13 14 mph 1017.8mb 31f
9:00pm 14 15 mph 1017.8mb 31f
8:54pm 13 14 mph 1017.8mb 30f
8:48pm 14 16 mph 1017.7mb 31f
8:42pm 14 16 mph 1017.7mb 31f
8:36pm 15 18 mph 1017.7mb 31f
8:30pm 17 20 mph 1017.7mb 31f
8:24pm 15 17 mph 1017.7mb 31f
8:18pm 14 16 mph 1017.5mb 31f
8:12pm 15 17 mph 1017.5mb 31f
8:06pm 15 17 mph 1017.5mb 31f
8:00pm 15 20 mph 1017.6mb 31f
7:54pm 16 18 mph 1017.6mb 31f
7:48pm 16 18 mph 1017.6mb 31f
7:42pm 14 17 mph 1017.5mb 31f
7:36pm 14 17 mph 1017.4mb 31f
7:30pm 16 18 mph 1017.3mb 31f
7:24pm 16 17 mph 1017.2mb 31f
7:18pm 15 17 mph 1017.1mb 31f
7:12pm 16 18 mph 1016.9mb 30f
7:06pm 15 17 mph 1016.8mb 30f
7:00pm 15 17 mph 1016.5mb 30f
6:54pm 16 18 mph 1016.3mb 30f
6:48pm 17 18 mph 1016.1mb 30f
6:42pm 17 20 mph 1015.8mb 30f
6:36pm 18 20 mph 1015.7mb 30f
6:30pm 18 21 mph 1015.7mb 30f
6:24pm 18 23 mph 1015.6mb 30f
6:18pm 21 23 mph 1015.3mb 30f
6:12pm 18 23 mph 1015.3mb 30f
6:06pm 21 22 mph 1015mb 30f
6:00pm 20 22 mph 1015mb 30f
5:54pm 20 23 mph 1015.1mb 30f
5:48pm 20 22 mph 1015.1mb 30f
5:42pm 18 21 mph 1014.8mb 30f
5:36pm 20 22 mph 1014.5mb 30f
5:30pm 20 22 mph 1014.5mb 30f
5:24pm 18 21 mph 1014.4mb 30f
5:18pm 18 21 mph 1014.2mb 30f
5:12pm 20 22 mph 1014mb 30f
5:06pm 21 23 mph 1014mb 30f
5:00pm 22 23 mph 1013.9mb 30f
4:54pm 21 23 mph 1013.7mb 30f
4:48pm 21 22 mph 1013.5mb 30f
4:42pm 20 22 mph 1013.4mb 30f
4:36pm 20 23 mph 1013.2mb 30f
4:30pm 21 24 mph 1012.8mb 30f
4:24pm 23 25 mph 1012.8mb 30f
4:18pm 22 25 mph 1012.7mb 31f
4:12pm 22 24 mph 1012.8mb 31f
4:06pm 21 24 mph 1012.7mb 31f
4:00pm 22 25 mph 1012.6mb 31f
3:54pm 22 24 mph 1012.6mb 31f
3:48pm 24 28 mph 1012.4mb 31f
3:42pm 23 26 mph 1012.1mb 31f
3:36pm 23 25 mph 1011.9mb 31f
3:30pm 22 24 mph 1011.9mb 31f
3:24pm 23 26 mph 1011.8mb 31f
3:18pm 16 22 mph 1011.6mb 31f
3:12pm 22 25 mph 1011.5mb 31f
3:06pm 25 29 mph 1011.1mb 31f
3:00pm 22 25 mph 1011.1mb 31f
2:54pm 23 26 mph 1011.1mb 31f
2:48pm 22 26 mph 1010.9mb 31f
2:42pm 17 21 mph 1010.9mb 31f
2:36pm 20 22 mph 1010.7mb 31f
2:30pm 15 21 mph 1010.5mb 31f
2:24pm 16 22 mph 1010.1mb 31f
2:18pm 20 23 mph 1009.8mb 31f
2:12pm 22 25 mph 1009.5mb 31f
2:06pm 23 29 mph 1009.2mb 31f
2:00pm 26 31 mph 1009mb 31f
1:54pm 25 30 mph 1009mb 31f
1:48pm 26 31 mph 1008.9mb 31f
1:42pm 25 29 mph 1008.8mb 31f
1:36pm 24 26 mph 1008.9mb 31f
1:30pm 22 26 mph 1008.9mb 31f
1:24pm 17 23 mph 1008.8mb 31f
1:18pm 16 20 mph 1008.6mb 31f
1:12pm 17 20 mph 1008.4mb 31f
1:06pm 16 18 mph 1008.4mb 31f
1:00pm 17 21 mph 1008.5mb 31f
12:54pm 18 21 mph 1008.4mb 31f
12:48pm 16 21 mph 1008.1mb 31f
12:42pm 17 20 mph 1007.9mb 31f
12:36pm 18 22 mph 1007.8mb 31f
12:30pm 21 23 mph 1007.8mb 31f
12:24pm 20 22 mph 1007.7mb 31f
12:18pm 20 33 mph 1007.5mb 31f
12:12pm 25 31 mph 1007.5mb 32f
12:06pm 26 31 mph 1007.4mb 32f
12:00pm 26 32 mph 1007.2mb 32f
11:54am 26 31 mph 1007mb 32f
11:48am 23 32 mph 1007.1mb 32f
11:42am 26 31 mph 1007mb 32f
11:36am 24 29 mph 1007.1mb 32f
11:30am 25 33 mph 1007.2mb 31f
11:24am 24 30 mph 1007.3mb 31f
11:18am 23 29 mph 1007.2mb 31f
11:12am 23 30 mph 1006.9mb 31f
11:06am 25 31 mph 1006.5mb 31f
11:00am 16 30 mph 1006.4mb 31f
10:54am 13 16 mph 1006.4mb 31f
10:48am 14 17 mph 1006.3mb 31f
10:42am 15 20 mph 1006.1mb 31f
10:36am 17 21 mph 1006.1mb 31f
10:30am 17 23 mph 1006.2mb 31f
10:24am 21 25 mph 1005.9mb 31f
10:18am 23 26 mph 1005.9mb 31f
10:12am 22 31 mph 1006mb 31f
10:06am 25 32 mph 1005.9mb 31f
10:00am 28 33 mph 1006mb 31f
9:54am 28 33 mph 1006mb 31f
9:48am 25 33 mph 1005.9mb 31f
9:42am 24 30 mph 1006mb 31f
9:36am 25 30 mph 1005.9mb 31f
9:30am 25 30 mph 1006.2mb 32f
9:24am 26 33 mph 1006mb 32f
9:18am 28 34 mph 1006mb 32f
9:12am 32 39 mph 1005.8mb 32f
9:06am 29 37 mph 1006.4mb 32f
9:00am 29 41 mph 1005.9mb 31f
8:54am 32 39 mph 1005.9mb 31f
8:48am 32 41 mph 1005.9mb 31f
8:42am 36 43 mph 1005.5mb 31f
8:36am 32 39 mph 1005.6mb 31f
8:30am 33 41 mph 1005.5mb 31f
8:24am 36 44 mph 1005.2mb 31f
8:18am 34 40 mph 1005.2mb 31f
8:12am 34 41 mph 1004.9mb 31f
8:06am 33 40 mph 1004.9mb 31f
8:00am 34 40 mph 1004.7mb 31f
7:54am 36 40 mph 1004.6mb 31f
7:48am 38 43 mph 1004.3mb 31f
7:42am 36 41 mph 1004.4mb 31f
7:36am 32 40 mph 1004.6mb 31f
7:30am 33 43 mph 1004.5mb 31f
7:24am 32 38 mph 1004.5mb 31f
7:18am 31 39 mph 1004.6mb 31f
7:12am 33 38 mph 1004.8mb 31f
7:06am 34 41 mph 1004.8mb 31f
7:00am 33 38 mph 1004.9mb 31f
6:54am 36 40 mph 1004.8mb 31f
6:48am 34 39 mph 1004.8mb 31f
6:42am 34 41 mph 1004.6mb 31f
6:36am 33 39 mph 1004.7mb 31f
6:30am 33 37 mph 1004.9mb 31f
6:24am 33 38 mph 1004.9mb 31f
6:18am 30 36 mph 1005.2mb 32f
6:12am 30 37 mph 1005.2mb 32f
6:06am 31 36 mph 1005.4mb 32f
6:00am 30 36 mph 1005.4mb 32f
5:54am 30 34 mph 1005.2mb 32f
5:48am 30 34 mph 1005mb 32f
5:42am 32 36 mph 1004.8mb 32f
5:36am 31 37 mph 1004.6mb 32f
5:30am 30 34 mph 1005.2mb 32f
5:24am 31 36 mph 1004.9mb 32f
5:18am 33 38 mph 1005mb 32f
5:12am 29 36 mph 1004.9mb 32f
5:06am 30 34 mph 1005.1mb 32f
5:00am 29 33 mph 1005.6mb 32f
4:54am 26 32 mph 1005.4mb 32f
4:48am 26 34 mph 1005mb 32f
4:42am 29 34 mph 1005.1mb 32f
4:36am 29 34 mph 1005.3mb 32f
4:30am 26 32 mph 1005.4mb 32f
4:24am 29 32 mph 1005.1mb 32f
4:18am 28 32 mph 1005.3mb 32f
4:12am 28 33 mph 1005.6mb 32f
4:06am 30 33 mph 1005.2mb 32f
4:00am 29 33 mph 1005mb 32f
3:54am 25 29 mph 1005.5mb 32f
3:48am 24 28 mph 1006.5mb 32f
3:42am 24 31 mph 1006.6mb 32f
3:36am 28 33 mph 1005.6mb 32f
3:30am 31 37 mph 1005mb 32f
3:24am 32 37 mph 1004.8mb 32f
3:18am 30 33 mph 1005.2mb 32f
3:12am 26 29 mph 1006.1mb 32f
3:06am 24 26 mph 1007.1mb 32f
3:00am 22 24 mph 1007.9mb 32f
2:54am 21 23 mph 1008.2mb 32f
2:48am 20 22 mph 1008.4mb 32f
2:42am 20 22 mph 1008.5mb 32f
2:36am 20 23 mph 1008.7mb 32f
2:30am 22 24 mph 1008.7mb 32f
2:24am 22 24 mph 1008.9mb 32f
2:18am 21 24 mph 1009.4mb 32f
2:12am 17 20 mph 1009.8mb 32f
2:06am 16 21 mph 1009.9mb 32f
2:00am 17 20 mph 1010mb 32f
1:54am 16 18 mph 1010.1mb 32f
1:48am 15 16 mph 1010.4mb 32f
1:42am 15 16 mph 1010.8mb 32f
1:36am 14 16 mph 1011.1mb 32f
1:30am 14 16 mph 1011.4mb 32f
1:24am 14 16 mph 1011.7mb 32f
1:18am 15 16 mph 1011.8mb 32f
1:12am 14 15 mph 1012.6mb 31f
1:06am 13 15 mph 1012.6mb 31f
1:00am 14 16 mph 1012.3mb 31f
12:54am 13 15 mph 1012.4mb 31f
12:48am 14 15 mph 1012.3mb 31f
12:42am 14 15 mph 1012.5mb 31f
12:36am 11 13 mph 1012.2mb 31f
12:30am 11 13 mph 1012.3mb 31f
12:24am 11 13 mph 1012.7mb 31f
12:18am 13 14 mph 1012.7mb 31f
12:12am 10 15 mph 1012.5mb 31f
12:06am 14 17 mph 1012.3mb 31f
12:00am 11 14 mph 1012.4mb 32f
Wed 02/25 11:54pm 8 13 mph 1012.7mb 33f
11:48pm 9 11 mph 1012.9mb 34f
11:42pm 6 7 mph 1012.9mb 35f
11:36pm 6 7 mph 1013mb 35f
11:30pm 5
mph
1013.4mb 35f
11:24pm 3 5 mph 1013.5mb 35f
11:18pm 2 5 mph 1013.2mb 35f
11:12pm 1 5 mph 1013mb 34f
11:06pm 2 5 mph 1012.6mb 34f
11:00pm 5 6 mph 1012.4mb 34f
10:54pm 5 7 mph 1012mb 34f
10:48pm 7 8 mph 1012mb 34f
10:42pm 5 7 mph 1012.3mb 34f
10:36pm 6 8 mph 1012.2mb 34f
10:30pm 7 9 mph 1011.9mb 33f
10:24pm 8 10 mph 1011.8mb 33f
10:18pm 9 11 mph 1011.8mb 34f
10:12pm 9 13 mph 1012.3mb 34f
10:06pm 9 11 mph 1013mb 34f
10:00pm 9 11 mph 1013mb 34f
9:54pm 9 13 mph 1013.3mb 34f
9:48pm 9 11 mph 1013.6mb 34f
9:42pm 8 9 mph 1013.7mb 34f
9:36pm 8 11 mph 1014mb 35f
9:30pm 8 9 mph 1014.3mb 35f
9:24pm 8 10 mph 1014.5mb 35f
9:18pm 7 9 mph 1014.8mb 35f
9:12pm 6 8 mph 1014.6mb 35f
9:06pm 6 9 mph 1014.7mb 35f
9:00pm 7 10 mph 1015mb 34f
8:54pm 7 9 mph 1015.1mb 34f
8:48pm 7 10 mph 1015mb 34f
8:42pm 7 9 mph 1015mb 34f
8:36pm 6 8 mph 1014.8mb 34f
8:30pm 7 9 mph 1014.3mb 34f
8:24pm 7 9 mph 1013.7mb 34f
8:18pm 8 9 mph 1013.1mb 33f
8:12pm 7 8 mph 1013.4mb 33f
8:06pm 7 9 mph 1013.3mb 33f
8:00pm 7 9 mph 1013.5mb 34f
7:54pm 8 9 mph 1013.7mb 34f
7:48pm 7 8 mph 1013.8mb 34f
7:42pm 6 7 mph 1014mb 34f
7:36pm 6
mph
1014.2mb 33f
7:30pm 5
mph
1014.2mb 33f
7:24pm 3 6 mph 1014.1mb 34f
7:18pm 5
mph
1013.8mb 34f
7:12pm 5 6 mph 1014mb 34f
7:06pm 5 7 mph 1014mb 34f
7:00pm 5 6 mph 1014mb 33f
6:54pm 5 6 mph 1013.9mb 33f
6:48pm 5 6 mph 1013.8mb 34f
6:42pm 6 7 mph 1013.8mb 33f
6:36pm 6 8 mph 1013.8mb 33f
6:30pm 7 8 mph 1014mb 33f
6:24pm 6 8 mph 1013.9mb 33f
6:18pm 7 8 mph 1013.9mb 33f
6:12pm 6 7 mph 1013.8mb 33f
6:06pm 6 8 mph 1013.8mb 33f
6:00pm 6 8 mph 1013.9mb 33f
5:54pm 7 9 mph 1013.8mb 33f
5:48pm 7 10 mph 1013.8mb 33f
5:42pm 8 9 mph 1013.7mb 33f
5:36pm 7 9 mph 1013.7mb 33f
5:30pm 7 9 mph 1013.7mb 34f
5:24pm 5 7 mph 1013.5mb 34f
5:18pm 6 7 mph 1013.5mb 34f
5:12pm 7 8 mph 1013.3mb 34f
5:06pm 8 9 mph 1013.2mb 33f
5:00pm 7 8 mph 1012.8mb 34f
4:54pm 6 8 mph 1012.9mb 34f
4:48pm 7 8 mph 1012.9mb 34f
4:42pm 6 7 mph 1013.1mb 34f
4:36pm 6 7 mph 1013mb 35f
4:30pm 6 7 mph 1012.9mb 35f
4:24pm 6 8 mph 1012.8mb 35f
4:18pm 7 8 mph 1012.3mb 34f
4:12pm 7
mph
1012.4mb 34f
4:06pm 7
mph
1012.7mb 35f
4:00pm 6 7 mph 1013mb 35f
3:54pm 6
mph
1013.1mb 35f
3:48pm 5 6 mph 1013.1mb 35f
3:42pm 5 6 mph 1013.2mb 35f
3:36pm 6
mph
1013mb 35f
3:30pm 5 6 mph 1013.1mb 35f
3:24pm 6
mph
1013.2mb 35f
3:18pm 5
mph
1013.3mb 36f
3:12pm 3 5 mph 1013.4mb 36f
3:06pm 3 5 mph 1013.4mb 36f
3:00pm 2 3 mph 1013.6mb 37f
2:54pm 2 3 mph 1013.6mb 37f
2:48pm 2 3 mph 1013.5mb 36f
2:42pm 2 3 mph 1013.4mb 37f
2:36pm 2
mph
1013.3mb 37f
2:30pm 1 2 mph 1013.4mb 37f
2:24pm 1 2 mph 1013.6mb 36f
2:18pm 2 3 mph 1013.5mb 35f
2:12pm 2 3 mph 1013.7mb 34f
2:06pm 3
mph
1013.8mb 33f
2:00pm 3 5 mph 1013.8mb 33f
1:54pm 6
mph
1013.8mb 33f
1:48pm 5
mph
1013.6mb 34f
1:42pm 5 6 mph 1013.7mb 35f
1:36pm 3 5 mph 1013.7mb 34f
1:30pm 5 6 mph 1013.7mb 34f
1:24pm 5 6 mph 1013.6mb 34f
1:18pm 6
mph
1013.7mb 34f
1:12pm 6 7 mph 1013.9mb 35f
1:06pm 6 7 mph 1013.8mb 35f
1:00pm 5 6 mph 1013.9mb 36f
12:54pm 5 7 mph 1013.9mb 36f
12:48pm 6 7 mph 1014.1mb 35f
12:42pm 6 8 mph 1014.1mb 35f
12:36pm 6 8 mph 1014mb 33f
12:30pm 7 8 mph 1014.1mb 33f
12:24pm 6 8 mph 1014.4mb 33f
12:18pm 6 7 mph 1014.5mb 33f
12:12pm 6 7 mph 1014.4mb 32f
12:06pm 5 6 mph 1014.5mb 32f
12:00pm 6 7 mph 1014.6mb 32f
11:54am 5 6 mph 1014.7mb 33f
11:48am 3 5 mph 1014.6mb 32f
11:42am 3 6 mph 1014.6mb 31f
11:36am 3 5 mph 1014.6mb 31f
11:30am 5 6 mph 1014.7mb 31f
11:24am 6
mph
1014.5mb 30f
11:18am 6 7 mph 1014.4mb 30f
11:12am 6 7 mph 1014.2mb 30f
11:06am 6 7 mph 1014mb 30f
11:00am 6 8 mph 1014.3mb 31f
10:54am 6 8 mph 1014.3mb 31f
10:48am 6 9 mph 1014.4mb 31f
10:42am 7 9 mph 1014.5mb 30f
10:36am 7 10 mph 1014.7mb 30f
10:30am 8 10 mph 1014.5mb 30f
10:24am 8 10 mph 1014.2mb 29f
10:18am 8 10 mph 1014mb 30f
10:12am 7 10 mph 1013.6mb 30f
10:06am 8 11 mph 1013.5mb 29f
10:00am 8 11 mph 1013.4mb 29f
9:54am 8 10 mph 1013.4mb 29f
9:48am 8 11 mph 1013.2mb 29f
9:42am 8 11 mph 1013.2mb 29f
9:36am 9 11 mph 1013.4mb 29f
9:30am 9 11 mph 1013.5mb 29f
9:24am 8 11 mph 1013.5mb 29f
9:18am 6 8 mph 1013.5mb 29f
9:12am 6 10 mph 1013.5mb 29f
9:06am 7 9 mph 1013.3mb 28f
9:00am 7 9 mph 1013mb 28f
8:54am 8 10 mph 1012.8mb 28f
8:48am 8 13 mph 1012.7mb 28f
8:42am 9 10 mph 1012.7mb 28f
8:36am 9 11 mph 1012.6mb 28f
8:30am 8 11 mph 1012.5mb 28f
8:24am 9 10 mph 1012.4mb 28f
8:18am 8 13 mph 1012.4mb 27f
8:12am 10 13 mph 1012.3mb 27f
8:06am 8 11 mph 1012.2mb 27f
8:00am 9 11 mph 1012mb 27f
7:54am 10 13 mph 1011.8mb 27f
7:48am 9 13 mph 1011.8mb 27f
7:42am 10 14 mph 1011.6mb 27f
7:36am 11 15 mph 1011.5mb 27f
7:30am 10 15 mph 1011.5mb 26f
7:24am 8 10 mph 1011.6mb 25f
7:18am 8 11 mph 1011.6mb 25f
7:12am 7 9 mph 1011.7mb 25f
7:06am 7 10 mph 1011.7mb 24f
7:00am 7 9 mph 1011.6mb 24f
6:54am 6 8 mph 1011.6mb 24f
6:48am 7 10 mph 1011.5mb 24f
6:42am 7 10 mph 1011.6mb 24f
6:36am 8 13 mph 1011.6mb 24f
6:30am 10 13 mph 1011.6mb 24f
6:24am 9 13 mph 1011.4mb 24f
6:18am 10 11 mph 1011.3mb 24f
6:12am 10 13 mph 1011.2mb 24f
6:06am 8 10 mph 1011.1mb 24f
6:00am 9 13 mph 1011mb 24f
5:54am 8 10 mph 1010.8mb 24f
5:48am 8 11 mph 1010.7mb 24f
5:42am 8 10 mph 1010.6mb 24f
5:36am 9 11 mph 1010.5mb 24f
5:30am 9 14 mph 1010.4mb 24f
5:24am 9 13 mph 1010.2mb 24f
5:18am 8 14 mph 1010.2mb 24f
5:12am 10 15 mph 1010.1mb 24f
5:06am 9 15 mph 1010mb 24f
5:00am 9 13 mph 1009.9mb 24f
4:54am 10 14 mph 1009.8mb 24f
4:48am 10 14 mph 1009.7mb 24f
4:42am 11 16 mph 1009.6mb 24f
4:36am 9 16 mph 1009.3mb 24f
4:30am 11 15 mph 1009.2mb 24f
4:24am 10 15 mph 1009.2mb 24f
4:18am 11 16 mph 1009.1mb 25f
4:12am 11 16 mph 1009mb 24f
4:06am 10 15 mph 1008.9mb 24f
4:00am 10 14 mph 1008.8mb 24f
3:54am 10 14 mph 1008.6mb 24f
3:48am 11 14 mph 1008.6mb 24f
3:42am 11 15 mph 1008.5mb 24f
3:36am 8 10 mph 1008.5mb 24f
3:30am 8 10 mph 1008.5mb 25f
3:24am 7 11 mph 1008.5mb 24f
3:18am 8 10 mph 1008.5mb 25f
3:12am 8 13 mph 1008.4mb 25f
3:06am 9 13 mph 1008.5mb 25f
3:00am 7 11 mph 1008.4mb 25f
2:54am 8 10 mph 1008.4mb 25f
2:48am 9 11 mph 1008.6mb 25f
2:42am 8 11 mph 1008.6mb 25f
2:36am 8 11 mph 1008.6mb 25f
2:30am 7 9 mph 1008.4mb 25f
2:24am 8 10 mph 1008.6mb 25f
2:18am 7 9 mph 1008.7mb 25f
2:12am 7 9 mph 1008.7mb 25f
2:06am 8 11 mph 1009mb 26f
2:00am 9 11 mph 1009.3mb 26f
1:54am 9 13 mph 1009.2mb 26f
1:48am 10 14 mph 1009.4mb 26f
1:42am 9 14 mph 1009.4mb 26f
1:36am 10 15 mph 1009.5mb 26f
1:30am 11 15 mph 1009.5mb 26f
1:24am 10 16 mph 1009.5mb 26f
1:18am 14 17 mph 1009.5mb 26f
1:12am 13 16 mph 1009.6mb 27f
1:06am 11 15 mph 1009.6mb 27f
1:00am 14 18 mph 1009.8mb 27f
12:54am 14 18 mph 1009.6mb 27f
12:48am 14 16 mph 1009.4mb 27f
12:42am 10 14 mph 1009.6mb 26f
12:36am 11 14 mph 1009.6mb 26f
12:30am 10 13 mph 1009.7mb 26f
12:24am 11 15 mph 1009.8mb 26f
12:18am 10 14 mph 1009.9mb 26f
12:12am 7 10 mph 1009.7mb 26f
12:06am 8 11 mph 1009.8mb 26f
12:00am 8 10 mph 1009.7mb 26f
Tue 02/24 11:54pm 9 13 mph 1009.9mb 26f
11:48pm 10 14 mph 1010mb 26f
11:42pm 11 14 mph 1010.1mb 26f
11:36pm 9 14 mph 1010.1mb 26f
11:30pm 10 11 mph 1010.1mb 26f
11:24pm 9 11 mph 1010.1mb 26f
11:18pm 10 11 mph 1010.3mb 26f
11:12pm 8 9 mph 1010.4mb 26f
11:06pm 7 8 mph 1010.6mb 26f
11:00pm 6 9 mph 1010.6mb 26f
10:54pm 8 10 mph 1010.7mb 26f
10:48pm 9 11 mph 1011mb 26f
10:42pm 10 13 mph 1011.2mb 26f
10:36pm 10 11 mph 1011.3mb 26f
10:30pm 9 11 mph 1011.4mb 26f
10:24pm 10 13 mph 1011.4mb 26f
10:18pm 11 14 mph 1011.3mb 26f
10:12pm 11 14 mph 1011.3mb 26f
10:06pm 13 14 mph 1011.2mb 26f
10:00pm 11 14 mph 1011mb 26f
9:54pm 10 11 mph 1011.1mb 26f
9:48pm 10 13 mph 1011.4mb 26f
9:42pm 10 11 mph 1011.4mb 26f
9:36pm 11 15 mph 1011.5mb 26f
9:30pm 13 14 mph 1011.7mb 26f
9:24pm 9 10 mph 1011.5mb 26f
9:18pm 7 8 mph 1011.5mb 26f
9:12pm 6 8 mph 1011.5mb 25f